| time (UTC) | temp F | wind direction | speed knots | gust knots | rain 1hr in | rain 24hr in | rain mn in | humidity % | barometer mb |
| 20260503053341 | 58 | 0 | 3.5 | 5.2 | 0.00 | 0.12 | 0.12 | 94 | 1010.8 |
| 20260503052841 | 57 | 0 | 1.7 | 3.5 | 0.00 | 0.12 | 0.12 | 94 | 1010.7 |
| 20260503052340 | 57 | 0 | 0.9 | 2.6 | 0.00 | 0.12 | 0.12 | 93 | 1010.7 |
| 20260503051842 | 56 | 0 | 1.7 | 2.6 | 0.00 | 0.12 | 0.12 | 93 | 1010.9 |
| 20260503051341 | 56 | 0 | 1.7 | 2.6 | 0.00 | 0.12 | 0.12 | 93 | 1010.8 |
| 20260503050843 | 56 | 0 | 1.7 | 4.3 | 0.00 | 0.12 | 0.12 | 93 | 1010.9 |
| 20260503050342 | 56 | 0 | 1.7 | 4.3 | 0.00 | 0.12 | 0.12 | 93 | 1010.9 |
| 20260503045842 | 56 | 0 | 0.9 | 3.5 | 0.00 | 0.12 | 0.12 | 93 | 1011.0 |
| 20260503045341 | 56 | 0 | 0.0 | 0.0 | 0.00 | 0.12 | 0.12 | 93 | 1010.9 |
| 20260503045103 | 56 | 0 | 0.0 | 0.0 | 0.00 | 0.12 | 0.12 | 93 | 1011.0 |
| 20260503044340 | 56 | 0 | 0.0 | 0.0 | 0.01 | 0.12 | 0.12 | 93 | 1011.0 |
| 20260503043840 | 56 | 0 | 0.0 | 0.0 | 0.02 | 0.12 | 0.12 | 93 | 1010.9 |
| 20260503043341 | 56 | 0 | 0.0 | 1.7 | 0.03 | 0.12 | 0.12 | 93 | 1011.0 |
| 20260503043102 | 56 | 0 | 0.0 | 2.6 | 0.04 | 0.12 | 0.12 | 93 | 1010.9 |
| 20260503042603 | 56 | 0 | 1.7 | 3.5 | 0.04 | 0.12 | 0.12 | 93 | 1010.9 |
| 20260503041841 | 57 | 0 | 0.9 | 3.5 | 0.05 | 0.12 | 0.12 | 93 | 1010.9 |
| 20260503041341 | 57 | 0 | 0.9 | 2.6 | 0.05 | 0.12 | 0.12 | 93 | 1010.9 |
| 20260503040842 | 57 | 0 | 0.9 | 3.5 | 0.05 | 0.12 | 0.12 | 93 | 1011.0 |
| 20260503040340 | 57 | 0 | 1.7 | 3.5 | 0.05 | 0.12 | 0.12 | 93 | 1011.1 |
| 20260503035840 | 57 | 0 | 1.7 | 2.6 | 0.05 | 0.07 | 0.12 | 93 | 1011.1 |
| 20260503035603 | 57 | 0 | 0.9 | 3.5 | 0.05 | 0.07 | 0.12 | 93 | 1011.2 |
| 20260503034839 | 57 | 0 | 1.7 | 6.1 | 0.05 | 0.07 | 0.12 | 93 | 1011.1 |
| 20260503034341 | 57 | 0 | 1.7 | 6.1 | 0.04 | 0.07 | 0.11 | 93 | 1011.3 |
| 20260503033840 | 57 | 0 | 2.6 | 8.7 | 0.03 | 0.07 | 0.09 | 93 | 1011.2 |
| 20260503033339 | 57 | 0 | 2.6 | 8.7 | 0.02 | 0.07 | 0.09 | 93 | 1011.4 |
| 20260503032844 | 57 | 0 | 3.5 | 8.7 | 0.01 | 0.07 | 0.08 | 93 | 1011.6 |
| 20260503032340 | 56 | 0 | 5.2 | 8.7 | 0.01 | 0.07 | 0.08 | 93 | 1011.8 |
| 20260503031839 | 56 | 0 | 4.3 | 8.7 | 0.00 | 0.07 | 0.07 | 93 | 1011.9 |
| 20260503031339 | 56 | 0 | 5.2 | 8.7 | 0.00 | 0.07 | 0.07 | 92 | 1011.8 |
| 20260503030842 | 56 | 0 | 3.5 | 6.1 | 0.00 | 0.07 | 0.07 | 92 | 1011.9 |
| 20260503030340 | 56 | 0 | 2.6 | 5.2 | 0.00 | 0.07 | 0.07 | 92 | 1011.8 |
| 20260503025838 | 56 | 0 | 2.6 | 4.3 | 0.00 | 0.07 | 0.07 | 92 | 1011.9 |
| 20260503025338 | 56 | 0 | 1.7 | 2.6 | 0.00 | 0.07 | 0.07 | 92 | 1012.0 |
| 20260503024838 | 56 | 0 | 0.0 | 0.9 | 0.00 | 0.07 | 0.07 | 92 | 1011.9 |
| 20260503024828 | 56 | 0 | 0.0 | 2.6 | 0.00 | 0.07 | 0.07 | 92 | 1011.8 |
| 20260503024058 | 56 | 0 | 0.9 | 2.6 | 0.00 | 0.07 | 0.07 | 92 | 1011.9 |
| 20260503023338 | 56 | 0 | 0.0 | 1.7 | 0.00 | 0.07 | 0.07 | 92 | 1011.9 |
| 20260503022837 | 56 | 0 | 0.0 | 1.7 | 0.00 | 0.07 | 0.07 | 92 | 1011.8 |
| 20260503022337 | 56 | 0 | 0.0 | 1.7 | 0.00 | 0.07 | 0.07 | 92 | 1011.9 |
| 20260503022104 | 56 | 0 | 0.0 | 1.7 | 0.00 | 0.07 | 0.07 | 92 | 1012.1 |
| 20260503021337 | 56 | 0 | 0.0 | 0.9 | 0.00 | 0.07 | 0.07 | 92 | 1012.0 |
| 20260503021057 | 56 | 0 | 0.0 | 0.9 | 0.00 | 0.07 | 0.07 | 92 | 1012.0 |
| 20260503020558 | 56 | 0 | 0.0 | 1.7 | 0.00 | 0.07 | 0.07 | 92 | 1012.0 |
| 20260503015837 | 56 | 0 | 0.9 | 1.7 | 0.00 | 0.07 | 0.07 | 92 | 1012.1 |
| 20260503015336 | 56 | 0 | 0.0 | 0.0 | 0.00 | 0.07 | 0.07 | 92 | 1011.9 |
| 20260503014835 | 56 | 0 | 0.0 | 1.7 | 0.00 | 0.07 | 0.07 | 92 | 1011.9 |
| 20260503014824 | 56 | 0 | 0.0 | 2.6 | 0.00 | 0.07 | 0.07 | 92 | 1011.8 |
| 20260503014100 | 56 | 0 | 0.9 | 2.6 | 0.00 | 0.07 | 0.07 | 92 | 1012.0 |
| 20260503013338 | 56 | 0 | 0.9 | 2.6 | 0.00 | 0.07 | 0.07 | 92 | 1011.9 |
| 20260503012836 | 56 | 0 | 1.7 | 2.6 | 0.00 | 0.07 | 0.07 | 92 | 1011.9 |
| 20260503012336 | 56 | 0 | 0.0 | 2.6 | 0.00 | 0.07 | 0.07 | 92 | 1012.0 |
| 20260503011838 | 56 | 0 | 0.0 | 4.3 | 0.00 | 0.07 | 0.07 | 92 | 1012.0 |
| 20260503011557 | 56 | 0 | 1.7 | 4.3 | 0.00 | 0.07 | 0.07 | 92 | 1012.0 |
| 20260503010837 | 56 | 0 | 2.6 | 4.3 | 0.00 | 0.07 | 0.07 | 91 | 1012.1 |
| 20260503010335 | 56 | 0 | 0.9 | 4.3 | 0.00 | 0.07 | 0.07 | 91 | 1012.1 |
| 20260503005835 | 56 | 0 | 1.7 | 4.3 | 0.00 | 0.07 | 0.07 | 91 | 1012.1 |
| 20260503005336 | 56 | 0 | 1.7 | 3.5 | 0.00 | 0.07 | 0.07 | 91 | 1012.1 |
| 20260503005037 | 56 | 0 | 1.7 | 4.3 | 0.00 | 0.07 | 0.07 | 91 | 1012.2 |
| 20260503003836 | 56 | 0 | 0.9 | 3.5 | 0.00 | 0.07 | 0.07 | 91 | 1012.4 |
| 20260503003558 | 56 | 0 | 1.7 | 3.5 | 0.00 | 0.07 | 0.07 | 91 | 1012.2 |
| 20260503002834 | 56 | 0 | 1.7 | 2.6 | 0.00 | 0.07 | 0.07 | 91 | 1012.3 |
| 20260503002335 | 56 | 0 | 0.0 | 1.7 | 0.00 | 0.07 | 0.07 | 91 | 1012.3 |
| 20260503001835 | 56 | 0 | 0.0 | 1.7 | 0.00 | 0.07 | 0.07 | 91 | 1012.2 |
| 20260503001334 | 56 | 0 | 0.0 | 1.7 | 0.00 | 0.07 | 0.07 | 91 | 1012.3 |
| 20260503000835 | 56 | 0 | 0.0 | 1.7 | 0.00 | 0.07 | 0.07 | 91 | 1012.4 |
| 20260503000334 | 56 | 0 | 0.0 | 0.9 | 0.00 | 0.07 | 0.07 | 90 | 1012.5 |
| 20260502235836 | 56 | 0 | 0.0 | 0.9 | 0.01 | 0.06 | 0.07 | 90 | 1012.6 |
| 20260502235332 | 56 | 0 | 0.0 | 1.7 | 0.01 | 0.06 | 0.07 | 90 | 1012.6 |
| 20260502234834 | 56 | 0 | 0.0 | 1.7 | 0.01 | 0.06 | 0.07 | 90 | 1012.5 |
| 20260502234334 | 56 | 0 | 0.9 | 2.6 | 0.02 | 0.06 | 0.07 | 90 | 1012.6 |
| 20260502233836 | 56 | 0 | 0.9 | 2.6 | 0.02 | 0.06 | 0.07 | 90 | 1012.8 |
| 20260502233334 | 56 | 0 | 0.0 | 3.5 | 0.02 | 0.06 | 0.07 | 90 | 1012.8 |
| 20260502232834 | 56 | 0 | 1.7 | 3.5 | 0.03 | 0.06 | 0.07 | 90 | 1012.9 |
| 20260502232335 | 56 | 0 | 1.7 | 7.8 | 0.05 | 0.06 | 0.07 | 90 | 1012.9 |
| 20260502232329 | 56 | 0 | 2.6 | 9.6 | 0.06 | 0.06 | 0.07 | 89 | 1012.9 |
| 20260502231334 | 56 | 0 | 5.2 | 9.6 | 0.06 | 0.06 | 0.07 | 89 | 1012.7 |
| 20260502230834 | 56 | 0 | 5.2 | 9.6 | 0.07 | 0.06 | 0.07 | 89 | 1012.8 |
| 20260502230334 | 56 | 0 | 5.2 | 9.6 | 0.07 | 0.06 | 0.07 | 89 | 1012.8 |
| 20260502225834 | 56 | 0 | 5.2 | 9.6 | 0.06 | 0.00 | 0.06 | 89 | 1013.1 |
| 20260502225333 | 57 | 0 | 3.5 | 7.8 | 0.06 | 0.00 | 0.06 | 89 | 1013.2 |
| 20260502224833 | 57 | 0 | 4.3 | 10.4 | 0.06 | 0.00 | 0.06 | 88 | 1013.4 |
| 20260502224333 | 57 | 0 | 5.2 | 10.4 | 0.06 | 0.00 | 0.06 | 88 | 1013.4 |
| 20260502223833 | 57 | 0 | 6.1 | 10.4 | 0.06 | 0.00 | 0.06 | 88 | 1013.4 |
| 20260502223339 | 58 | 0 | 9.6 | 13.0 | 0.04 | 0.00 | 0.03 | 88 | 1013.3 |
| 20260502223334 | 57 | 0 | 5.2 | 13.0 | 0.06 | 0.00 | 0.06 | 88 | 1013.3 |
| 20260502222559 | 57 | 0 | 5.2 | 10.4 | 0.02 | 0.00 | 0.02 | 88 | 1013.9 |
| 20260502221831 | 57 | 0 | 3.5 | 9.6 | 0.01 | 0.00 | 0.01 | 88 | 1014.2 |
| 20260502221331 | 57 | 0 | 3.5 | 9.6 | 0.01 | 0.00 | 0.01 | 87 | 1014.4 |
| 20260502220831 | 57 | 0 | 4.3 | 13.0 | 0.00 | 0.00 | 0.00 | 87 | 1014.7 |
| 20260502220333 | 57 | 0 | 6.1 | 18.2 | 0.00 | 0.00 | 0.00 | 87 | 1014.8 |
| 20260502215830 | 57 | 0 | 6.1 | 18.2 | 0.00 | 0.00 | 0.00 | 87 | 1015.0 |
| 20260502215331 | 57 | 0 | 11.3 | 15.6 | 0.00 | 0.00 | 0.00 | 87 | 1015.3 |
| 20260502214832 | 57 | 0 | 4.3 | 8.7 | 0.00 | 0.00 | 0.00 | 87 | 1013.8 |
| 20260502214554 | 56 | 0 | 3.5 | 6.1 | 0.00 | 0.00 | 0.00 | 87 | 1013.8 |
| 20260502213830 | 56 | 0 | 3.5 | 6.1 | 0.00 | 0.00 | 0.00 | 86 | 1013.8 |
| 20260502213330 | 56 | 0 | 3.5 | 7.8 | 0.00 | 0.00 | 0.00 | 86 | 1013.8 |
| 20260502213058 | 56 | 0 | 5.2 | 7.8 | 0.00 | 0.00 | 0.00 | 86 | 1013.8 |
| 20260502212330 | 56 | 0 | 5.2 | 6.1 | 0.00 | 0.00 | 0.00 | 86 | 1013.8 |
| 20260502211832 | 57 | 0 | 4.3 | 6.1 | 0.00 | 0.00 | 0.00 | 86 | 1013.9 |
| 20260502211332 | 57 | 0 | 4.3 | 7.8 | 0.00 | 0.00 | 0.00 | 86 | 1013.9 |
| 20260502210831 | 57 | 0 | 5.2 | 7.8 | 0.00 | 0.00 | 0.00 | 86 | 1014.0 |
| 20260502210330 | 57 | 0 | 5.2 | 7.8 | 0.00 | 0.00 | 0.00 | 86 | 1014.0 |
| 20260502205834 | 57 | 0 | 3.5 | 5.2 | 0.00 | 0.00 | 0.00 | 86 | 1014.2 |
| 20260502205329 | 57 | 0 | 3.5 | 5.2 | 0.00 | 0.00 | 0.00 | 86 | 1014.3 |
| 20260502204832 | 57 | 0 | 3.5 | 7.8 | 0.00 | 0.00 | 0.00 | 85 | 1014.2 |
| 20260502204331 | 57 | 0 | 4.3 | 7.8 | 0.00 | 0.00 | 0.00 | 85 | 1014.4 |
| 20260502203830 | 57 | 0 | 3.5 | 7.8 | 0.00 | 0.00 | 0.00 | 85 | 1014.4 |
| 20260502203552 | 57 | 0 | 2.6 | 5.2 | 0.00 | 0.00 | 0.00 | 84 | 1014.3 |
| 20260502202829 | 58 | 0 | 4.3 | 5.2 | 0.00 | 0.00 | 0.00 | 84 | 1014.4 |
| 20260502202331 | 58 | 0 | 2.6 | 5.2 | 0.00 | 0.00 | 0.00 | 84 | 1014.6 |
| 20260502201828 | 58 | 0 | 1.7 | 7.8 | 0.00 | 0.00 | 0.00 | 83 | 1014.6 |
| 20260502201551 | 58 | 0 | 3.5 | 7.8 | 0.00 | 0.00 | 0.00 | 83 | 1014.8 |
| 20260502200828 | 58 | 0 | 2.6 | 6.1 | 0.00 | 0.00 | 0.00 | 83 | 1014.7 |
| 20260502200328 | 58 | 0 | 2.6 | 4.3 | 0.00 | 0.00 | 0.00 | 82 | 1014.8 |
| 20260502195829 | 58 | 0 | 3.5 | 4.3 | 0.00 | 0.00 | 0.00 | 82 | 1014.9 |
| 20260502195328 | 58 | 0 | 2.6 | 5.2 | 0.00 | 0.00 | 0.00 | 82 | 1014.9 |
| 20260502194830 | 58 | 0 | 2.6 | 5.2 | 0.00 | 0.00 | 0.00 | 81 | 1014.9 |
| 20260502194328 | 58 | 0 | 2.6 | 4.3 | 0.00 | 0.00 | 0.00 | 81 | 1014.8 |
| 20260502193828 | 58 | 0 | 1.7 | 3.5 | 0.00 | 0.00 | 0.00 | 81 | 1014.8 |
| 20260502193330 | 59 | 0 | 2.6 | 3.5 | 0.00 | 0.00 | 0.00 | 81 | 1014.8 |
| 20260502192827 | 59 | 0 | 1.7 | 3.5 | 0.00 | 0.00 | 0.00 | 80 | 1014.9 |
| 20260502192327 | 59 | 0 | 1.7 | 3.5 | 0.00 | 0.00 | 0.00 | 80 | 1014.9 |
| 20260502192053 | 59 | 0 | 1.7 | 3.5 | 0.00 | 0.00 | 0.00 | 80 | 1014.9 |
| 20260502191329 | 59 | 0 | 1.7 | 3.5 | 0.00 | 0.00 | 0.00 | 79 | 1015.0 |
| 20260502190827 | 60 | 0 | 1.7 | 3.5 | 0.00 | 0.00 | 0.00 | 79 | 1015.0 |
| 20260502190327 | 60 | 0 | 1.7 | 3.5 | 0.00 | 0.00 | 0.00 | 78 | 1015.0 |
| 20260502185827 | 60 | 0 | 2.6 | 3.5 | 0.00 | 0.00 | 0.00 | 78 | 1014.9 |
| 20260502185327 | 60 | 0 | 1.7 | 5.2 | 0.00 | 0.00 | 0.00 | 78 | 1015.0 |
| 20260502184828 | 61 | 0 | 3.5 | 5.2 | 0.00 | 0.00 | 0.00 | 78 | 1015.0 |
| 20260502184326 | 61 | 0 | 3.5 | 5.2 | 0.00 | 0.00 | 0.00 | 77 | 1014.9 |
| 20260502183828 | 61 | 0 | 3.5 | 5.2 | 0.00 | 0.00 | 0.00 | 76 | 1015.0 |
| 20260502183328 | 61 | 0 | 3.5 | 6.1 | 0.00 | 0.00 | 0.00 | 75 | 1014.9 |
| 20260502182826 | 62 | 0 | 3.5 | 6.1 | 0.00 | 0.00 | 0.00 | 75 | 1015.0 |
| 20260502182328 | 62 | 0 | 3.5 | 5.2 | 0.00 | 0.00 | 0.00 | 74 | 1014.9 |
| 20260502182054 | 62 | 0 | 1.7 | 5.2 | 0.00 | 0.00 | 0.00 | 73 | 1014.9 |
| 20260502181326 | 62 | 0 | 2.6 | 5.2 | 0.00 | 0.00 | 0.00 | 73 | 1014.9 |
| 20260502180827 | 62 | 0 | 3.5 | 5.2 | 0.00 | 0.00 | 0.00 | 70 | 1014.9 |
| 20260502180326 | 62 | 0 | 1.7 | 4.3 | 0.00 | 0.00 | 0.00 | 68 | 1015.0 |
| 20260502170325 | 64 | 0 | 2.6 | 6.1 | 0.00 | 0.00 | 0.00 | 62 | 1015.5 |
| 20260502164326 | 65 | 0 | 3.5 | 8.7 | 0.00 | 0.00 | 0.00 | 61 | 1015.7 |
| 20260502163825 | 65 | 0 | 3.5 | 8.7 | 0.00 | 0.00 | 0.00 | 60 | 1016.0 |
| 20260502163325 | 66 | 0 | 3.5 | 8.7 | 0.00 | 0.00 | 0.00 | 58 | 1016.1 |
| 20260502163053 | 66 | 0 | 3.5 | 8.7 | 0.00 | 0.00 | 0.00 | 56 | 1016.2 |
| 20260502162324 | 66 | 0 | 4.3 | 7.8 | 0.00 | 0.00 | 0.00 | 56 | 1016.2 |
| 20260502162048 | 67 | 0 | 4.3 | 7.8 | 0.00 | 0.00 | 0.00 | 54 | 1016.2 |
| 20260502161323 | 67 | 0 | 2.6 | 7.8 | 0.00 | 0.00 | 0.00 | 54 | 1016.1 |
| 20260502161049 | 68 | 0 | 4.3 | 7.8 | 0.00 | 0.00 | 0.00 | 54 | 1016.2 |
| 20260502160323 | 68 | 0 | 4.3 | 9.6 | 0.00 | 0.00 | 0.00 | 53 | 1016.2 |
| 20260502152321 | 69 | 0 | 6.1 | 10.4 | 0.00 | 0.00 | 0.00 | 53 | 1016.6 |
| 20260502151821 | 69 | 0 | 7.0 | 10.4 | 0.00 | 0.00 | 0.00 | 53 | 1016.6 |
| 20260502151323 | 69 | 0 | 5.2 | 11.3 | 0.00 | 0.00 | 0.00 | 53 | 1016.6 |
| 20260502151055 | 69 | 0 | 6.1 | 11.3 | 0.00 | 0.00 | 0.00 | 53 | 1016.6 |
| 20260502150322 | 69 | 0 | 6.1 | 10.4 | 0.00 | 0.00 | 0.00 | 53 | 1016.8 |
| 20260502130318 | 69 | 0 | 7.8 | 12.2 | 0.00 | 0.00 | 0.00 | 59 | 1017.6 |
| 20260502123319 | 69 | 0 | 7.8 | 14.8 | 0.00 | 0.00 | 0.00 | 67 | 1017.9 |
| 20260502122819 | 69 | 0 | 7.8 | 14.8 | 0.00 | 0.00 | 0.00 | 68 | 1017.9 |
| 20260502122318 | 69 | 0 | 7.8 | 13.9 | 0.00 | 0.00 | 0.00 | 68 | 1018.0 |
| 20260502121817 | 70 | 0 | 7.8 | 13.9 | 0.00 | 0.00 | 0.00 | 68 | 1018.0 |
| 20260502121317 | 71 | 0 | 6.1 | 14.8 | 0.00 | 0.00 | 0.00 | 69 | 1018.0 |
| 20260502120817 | 71 | 0 | 7.0 | 14.8 | 0.00 | 0.00 | 0.00 | 69 | 1018.0 |
| 20260502120318 | 72 | 0 | 7.8 | 13.0 | 0.00 | 0.00 | 0.00 | 69 | 1018.0 |
| 20260502115817 | 72 | 0 | 7.0 | 13.0 | 0.00 | 0.00 | 0.00 | 70 | 1018.0 |
| 20260502115317 | 71 | 0 | 5.2 | 14.8 | 0.00 | 0.00 | 0.00 | 70 | 1018.1 |
| 20260502115040 | 72 | 0 | 7.8 | 14.8 | 0.00 | 0.00 | 0.00 | 70 | 1018.1 |
| 20260502114546 | 72 | 0 | 6.1 | 14.8 | 0.00 | 0.00 | 0.00 | 70 | 1018.2 |
| 20260502113816 | 72 | 0 | 7.0 | 14.8 | 0.00 | 0.00 | 0.00 | 70 | 1018.1 |
| 20260502113316 | 72 | 0 | 9.6 | 14.8 | 0.00 | 0.00 | 0.00 | 70 | 1018.2 |
| 20260502112816 | 72 | 0 | 7.0 | 14.8 | 0.00 | 0.00 | 0.00 | 71 | 1018.1 |
| 20260502112318 | 72 | 0 | 6.1 | 14.8 | 0.00 | 0.00 | 0.00 | 70 | 1018.2 |
| 20260502111815 | 71 | 0 | 7.0 | 11.3 | 0.00 | 0.00 | 0.00 | 71 | 1018.2 |
| 20260502111316 | 71 | 0 | 5.2 | 12.2 | 0.00 | 0.00 | 0.00 | 72 | 1018.2 |
| 20260502110817 | 71 | 0 | 7.0 | 12.2 | 0.00 | 0.00 | 0.00 | 72 | 1018.2 |
| 20260502110315 | 70 | 0 | 7.0 | 12.2 | 0.00 | 0.00 | 0.00 | 72 | 1018.3 |
| 20260502105814 | 70 | 0 | 5.2 | 12.2 | 0.00 | 0.00 | 0.00 | 73 | 1018.3 |
| 20260502105316 | 69 | 0 | 5.2 | 11.3 | 0.00 | 0.00 | 0.00 | 74 | 1018.4 |
| 20260502105048 | 69 | 0 | 5.2 | 13.9 | 0.00 | 0.00 | 0.00 | 73 | 1018.4 |
| 20260502104318 | 69 | 0 | 7.8 | 13.9 | 0.00 | 0.00 | 0.00 | 73 | 1018.3 |
| 20260502103815 | 69 | 0 | 7.8 | 12.2 | 0.00 | 0.00 | 0.00 | 73 | 1018.3 |
| 20260502103317 | 69 | 0 | 6.1 | 14.8 | 0.00 | 0.00 | 0.00 | 73 | 1018.5 |
| 20260502102815 | 69 | 0 | 6.1 | 15.6 | 0.00 | 0.00 | 0.00 | 73 | 1018.4 |
| 20260502102541 | 70 | 0 | 10.4 | 15.6 | 0.00 | 0.00 | 0.00 | 74 | 1018.5 |
| 20260502101815 | 70 | 0 | 6.1 | 13.0 | 0.00 | 0.00 | 0.00 | 74 | 1018.3 |
| 20260502101314 | 70 | 0 | 7.0 | 13.0 | 0.00 | 0.00 | 0.00 | 74 | 1018.4 |
| 20260502100814 | 70 | 0 | 9.6 | 13.0 | 0.00 | 0.00 | 0.00 | 74 | 1018.5 |
| 20260502100315 | 70 | 0 | 6.1 | 13.9 | 0.00 | 0.00 | 0.00 | 75 | 1018.5 |
| 20260502091310 | 68 | 0 | 7.0 | 11.3 | 0.00 | 0.00 | 0.00 | 79 | 1018.4 |
| 20260502090812 | 67 | 0 | 4.3 | 11.3 | 0.00 | 0.00 | 0.00 | 80 | 1018.3 |
| 20260502090309 | 67 | 0 | 6.1 | 11.3 | 0.00 | 0.00 | 0.00 | 80 | 1018.4 |
| 20260502071304 | 58 | 0 | 2.6 | 3.5 | 0.00 | 0.00 | 0.00 | 81 | 1018.5 |
| 20260502070803 | 58 | 0 | 1.7 | 4.3 | 0.00 | 0.00 | 0.00 | 81 | 1018.5 |
| 20260502070302 | 58 | 0 | 2.6 | 4.3 | 0.00 | 0.00 | 0.00 | 81 | 1018.6 |
| 20260502065803 | 58 | 0 | 2.6 | 4.3 | 0.00 | 0.00 | 0.00 | 81 | 1018.7 |
| 20260502065302 | 57 | 0 | 1.7 | 4.3 | 0.00 | 0.00 | 0.00 | 81 | 1018.6 |
| 20260502064803 | 57 | 0 | 2.6 | 4.3 | 0.00 | 0.00 | 0.00 | 81 | 1018.6 |
| 20260502064302 | 57 | 0 | 2.6 | 5.2 | 0.00 | 0.00 | 0.00 | 80 | 1018.5 |
| 20260502063802 | 57 | 0 | 2.6 | 5.2 | 0.00 | 0.00 | 0.00 | 80 | 1018.5 |
| 20260502063302 | 56 | 0 | 2.6 | 4.3 | 0.00 | 0.00 | 0.00 | 80 | 1018.5 |
| 20260502062801 | 56 | 0 | 2.6 | 5.2 | 0.00 | 0.00 | 0.00 | 80 | 1018.5 |
| 20260502062306 | 56 | 0 | 2.6 | 5.2 | 0.00 | 0.00 | 0.00 | 80 | 1018.4 |
| 20260502062257 | 56 | 0 | 2.6 | 5.2 | 0.00 | 0.00 | 0.00 | 79 | 1018.4 |
| 20260502061303 | 56 | 0 | 1.7 | 5.2 | 0.00 | 0.00 | 0.00 | 79 | 1018.4 |
| 20260502061033 | 56 | 0 | 1.7 | 5.2 | 0.00 | 0.00 | 0.00 | 79 | 1018.4 |
| 20260502060304 | 56 | 0 | 3.5 | 6.1 | 0.00 | 0.00 | 0.00 | 79 | 1018.5 |
| 20260502055802 | 56 | 0 | 4.3 | 6.1 | 0.00 | 0.00 | 0.00 | 78 | 1018.6 |
| 20260502055313 | 56 | 0 | 3.5 | 4.3 | 0.00 | 0.00 | 0.00 | 78 | 1018.4 |
| 20260502054802 | 56 | 0 | 2.6 | 4.3 | 0.00 | 0.00 | 0.00 | 78 | 1018.4 |
| 20260502054302 | 56 | 0 | 2.6 | 4.3 | 0.00 | 0.00 | 0.00 | 78 | 1018.4 |
| 20260502053804 | 55 | 0 | 1.7 | 4.3 | 0.00 | 0.00 | 0.00 | 79 | 1018.3 |